owner,sensor,date,latitude,longitude,vertical_datum,wind_speed,wind_to_direction,wind_speed_of_gust,qcFlag 
ADCP,ioos:station:wmo:42362:1,2009-05-01T00:15:00Z,27.7950,-90.6480,122.0,8.0,-9999.0,99.0,'11111222,99999999,11144222' 
ADCP,ioos:station:wmo:42362:1,2009-05-01T00:45:00Z,27.7950,-90.6480,122.0,9.0,-9999.0,99.0,'11111222,99999999,11144222' 
ADCP,ioos:station:wmo:42362:1,2009-05-01T01:15:00Z,27.7950,-90.6480,122.0,9.0,-9999.0,99.0,'11111222,99999999,11144222' 
ADCP,ioos:station:wmo:42362:1,2009-05-01T01:45:00Z,27.7950,-90.6480,122.0,9.0,-9999.0,99.0,'11111222,99999999,11144222' 
ADCP,ioos:station:wmo:42362:1,2009-05-01T02:15:00Z,27.7950,-90.6480,122.0,10.0,-9999.0,99.0,'11111222,99999999,11144222' 
ADCP,ioos:station:wmo:42362:1,2009-05-01T02:45:00Z,27.7950,-90.6480,122.0,10.0,-9999.0,99.0,'11111222,99999999,11144222' 
ADCP,ioos:station:wmo:42362:1,2009-05-01T03:15:00Z,27.7950,-90.6480,122.0,10.0,-9999.0,99.0,'11111222,99999999,11144222' 
ADCP,ioos:station:wmo:42362:1,2009-05-01T03:45:00Z,27.7950,-90.6480,122.0,10.0,-9999.0,99.0,'11111222,99999999,11144222' 
ADCP,ioos:station:wmo:42362:1,2009-05-01T04:15:00Z,27.7950,-90.6480,122.0,11.0,-9999.0,99.0,'11111222,99999999,11144222' 
ADCP,ioos:station:wmo:42362:1,2009-05-01T04:45:00Z,27.7950,-90.6480,122.0,9.0,-9999.0,99.0,'11111222,99999999,11144222' 
ADCP,ioos:station:wmo:42362:1,2009-05-01T05:15:00Z,27.7950,-90.6480,122.0,12.0,-9999.0,99.0,'11111222,99999999,11144222' 
ADCP,ioos:station:wmo:42362:1,2009-05-01T05:45:00Z,27.7950,-90.6480,122.0,11.0,-9999.0,99.0,'11111222,99999999,11144222' 
ADCP,ioos:station:wmo:42362:1,2009-05-01T06:15:00Z,27.7950,-90.6480,122.0,12.0,-9999.0,99.0,'11111222,99999999,11144222' 
ADCP,ioos:station:wmo:42362:1,2009-05-01T06:45:00Z,27.7950,-90.6480,122.0,10.0,-9999.0,99.0,'11111222,99999999,11144222' 
ADCP,ioos:station:wmo:42362:1,2009-05-01T07:15:00Z,27.7950,-90.6480,122.0,9.0,-9999.0,99.0,'11111222,99999999,11144222' 
ADCP,ioos:station:wmo:42362:1,2009-05-01T07:45:00Z,27.7950,-90.6480,122.0,11.0,-9999.0,99.0,'11111222,99999999,11144222' 
ADCP,ioos:station:wmo:42362:1,2009-05-01T08:15:00Z,27.7950,-90.6480,122.0,8.0,-9999.0,99.0,'11111222,99999999,11144222' 
ADCP,ioos:station:wmo:42362:1,2009-05-01T08:45:00Z,27.7950,-90.6480,122.0,8.0,-9999.0,99.0,'11111222,99999999,11144222' 
ADCP,ioos:station:wmo:42362:1,2009-05-01T09:15:00Z,27.7950,-90.6480,122.0,8.0,-9999.0,99.0,'11111222,99999999,11144222' 
ADCP,ioos:station:wmo:42362:1,2009-05-01T09:45:00Z,27.7950,-90.6480,122.0,8.0,-9999.0,99.0,'11111222,99999999,11144222' 
ADCP,ioos:station:wmo:42362:1,2009-05-01T10:15:00Z,27.7950,-90.6480,122.0,8.0,-9999.0,99.0,'11111222,99999999,11144222' 
ADCP,ioos:station:wmo:42362:1,2009-05-01T10:45:00Z,27.7950,-90.6480,122.0,7.0,-9999.0,99.0,'11111222,99999999,11144222' 
ADCP,ioos:station:wmo:42362:1,2009-05-01T11:15:00Z,27.7950,-90.6480,122.0,10.0,-9999.0,99.0,'11111222,99999999,11144222' 
ADCP,ioos:station:wmo:42362:1,2009-05-01T11:45:00Z,27.7950,-90.6480,122.0,10.0,-9999.0,99.0,'11111222,99999999,11144222' 
ADCP,ioos:station:wmo:42362:1,2009-05-01T12:15:00Z,27.7950,-90.6480,122.0,9.0,-9999.0,99.0,'11111222,99999999,11144222' 
ADCP,ioos:station:wmo:42362:1,2009-05-01T12:45:00Z,27.7950,-90.6480,122.0,8.0,-9999.0,99.0,'11111222,99999999,11144222' 
ADCP,ioos:station:wmo:42362:1,2009-05-01T13:15:00Z,27.7950,-90.6480,122.0,9.0,-9999.0,99.0,'11111222,99999999,11144222' 
ADCP,ioos:station:wmo:42362:1,2009-05-01T13:45:00Z,27.7950,-90.6480,122.0,9.0,-9999.0,99.0,'11111222,99999999,11144222' 
ADCP,ioos:station:wmo:42362:1,2009-05-01T14:15:00Z,27.7950,-90.6480,122.0,7.0,-9999.0,99.0,'11111222,99999999,11144222' 
ADCP,ioos:station:wmo:42362:1,2009-05-01T14:45:00Z,27.7950,-90.6480,122.0,8.0,-9999.0,99.0,'11111222,99999999,11144222' 
ADCP,ioos:station:wmo:42362:1,2009-05-01T15:15:00Z,27.7950,-90.6480,122.0,8.0,-9999.0,99.0,'11111222,99999999,11144222' 
ADCP,ioos:station:wmo:42362:1,2009-05-01T15:45:00Z,27.7950,-90.6480,122.0,7.0,-9999.0,99.0,'11111222,99999999,11144222' 
ADCP,ioos:station:wmo:42362:1,2009-05-01T16:15:00Z,27.7950,-90.6480,122.0,7.0,-9999.0,99.0,'11111222,99999999,11144222' 
ADCP,ioos:station:wmo:42362:1,2009-05-01T16:45:00Z,27.7950,-90.6480,122.0,8.0,-9999.0,99.0,'11111222,99999999,11144222' 
ADCP,ioos:station:wmo:42362:1,2009-05-01T17:15:00Z,27.7950,-90.6480,122.0,8.0,-9999.0,99.0,'11111222,99999999,11144222' 
ADCP,ioos:station:wmo:42362:1,2009-05-01T17:45:00Z,27.7950,-90.6480,122.0,8.0,-9999.0,99.0,'11111222,99999999,11144222' 
ADCP,ioos:station:wmo:42362:1,2009-05-01T18:15:00Z,27.7950,-90.6480,122.0,6.0,-9999.0,99.0,'11111222,99999999,11144222' 
ADCP,ioos:station:wmo:42362:1,2009-05-01T18:45:00Z,27.7950,-90.6480,122.0,6.0,-9999.0,99.0,'11111222,99999999,11144222' 
ADCP,ioos:station:wmo:42362:1,2009-05-01T19:15:00Z,27.7950,-90.6480,122.0,7.0,-9999.0,99.0,'11111222,99999999,11144222' 
ADCP,ioos:station:wmo:42362:1,2009-05-01T19:45:00Z,27.7950,-90.6480,122.0,6.0,-9999.0,99.0,'11111222,99999999,11144222' 
ADCP,ioos:station:wmo:42362:1,2009-05-01T20:15:00Z,27.7950,-90.6480,122.0,6.0,-9999.0,99.0,'11111222,99999999,11144222' 
ADCP,ioos:station:wmo:42362:1,2009-05-01T20:45:00Z,27.7950,-90.6480,122.0,6.0,-9999.0,99.0,'11111222,99999999,11144222' 
ADCP,ioos:station:wmo:42362:1,2009-05-01T21:15:00Z,27.7950,-90.6480,122.0,6.0,-9999.0,99.0,'11111222,99999999,11144222' 
ADCP,ioos:station:wmo:42362:1,2009-05-01T21:45:00Z,27.7950,-90.6480,122.0,7.0,-9999.0,99.0,'11111222,99999999,11144222' 
ADCP,ioos:station:wmo:42362:1,2009-05-01T22:15:00Z,27.7950,-90.6480,122.0,7.0,-9999.0,99.0,'11111222,99999999,11144222' 
ADCP,ioos:station:wmo:42362:1,2009-05-01T22:45:00Z,27.7950,-90.6480,122.0,7.0,-9999.0,99.0,'11111222,99999999,11144222' 
ADCP,ioos:station:wmo:42362:1,2009-05-01T23:15:00Z,27.7950,-90.6480,122.0,8.0,-9999.0,99.0,'11111222,99999999,11144222' 
ADCP,ioos:station:wmo:42362:1,2009-05-01T23:45:00Z,27.7950,-90.6480,122.0,8.0,-9999.0,99.0,'11111222,99999999,11144222' 
ADCP,ioos:station:wmo:42362:1,2009-05-02T00:15:00Z,27.7950,-90.6480,122.0,8.0,-9999.0,99.0,'11111222,99999999,11144222' 
ADCP,ioos:station:wmo:42362:1,2009-05-02T00:45:00Z,27.7950,-90.6480,122.0,7.0,-9999.0,99.0,'11111222,99999999,11144222' 
ADCP,ioos:station:wmo:42362:1,2009-05-02T01:15:00Z,27.7950,-90.6480,122.0,8.0,-9999.0,99.0,'11111222,99999999,11144222' 
ADCP,ioos:station:wmo:42362:1,2009-05-02T01:45:00Z,27.7950,-90.6480,122.0,9.0,-9999.0,99.0,'11111222,99999999,11144222' 
ADCP,ioos:station:wmo:42362:1,2009-05-02T02:15:00Z,27.7950,-90.6480,122.0,9.0,-9999.0,99.0,'11111222,99999999,11144222' 
ADCP,ioos:station:wmo:42362:1,2009-05-02T02:45:00Z,27.7950,-90.6480,122.0,8.0,-9999.0,99.0,'11111222,99999999,11144222' 
ADCP,ioos:station:wmo:42362:1,2009-05-02T03:15:00Z,27.7950,-90.6480,122.0,9.0,-9999.0,99.0,'11111222,99999999,11144222' 
ADCP,ioos:station:wmo:42362:1,2009-05-02T03:45:00Z,27.7950,-90.6480,122.0,9.0,-9999.0,99.0,'11111222,99999999,11144222' 
ADCP,ioos:station:wmo:42362:1,2009-05-02T04:15:00Z,27.7950,-90.6480,122.0,8.0,-9999.0,99.0,'11111222,99999999,11144222' 
ADCP,ioos:station:wmo:42362:1,2009-05-02T04:45:00Z,27.7950,-90.6480,122.0,9.0,-9999.0,99.0,'11111222,99999999,11144222' 
ADCP,ioos:station:wmo:42362:1,2009-05-02T05:15:00Z,27.7950,-90.6480,122.0,9.0,-9999.0,99.0,'11111222,99999999,11144222' 
ADCP,ioos:station:wmo:42362:1,2009-05-02T05:45:00Z,27.7950,-90.6480,122.0,10.0,-9999.0,99.0,'11111222,99999999,11144222' 
ADCP,ioos:station:wmo:42362:1,2009-05-02T06:15:00Z,27.7950,-90.6480,122.0,10.0,-9999.0,99.0,'11111222,99999999,11144222' 
ADCP,ioos:station:wmo:42362:1,2009-05-02T06:45:00Z,27.7950,-90.6480,122.0,10.0,-9999.0,99.0,'11111222,99999999,11144222' 
ADCP,ioos:station:wmo:42362:1,2009-05-02T07:15:00Z,27.7950,-90.6480,122.0,10.0,-9999.0,99.0,'11111222,99999999,11144222' 
ADCP,ioos:station:wmo:42362:1,2009-05-02T07:45:00Z,27.7950,-90.6480,122.0,9.0,-9999.0,99.0,'11111222,99999999,11144222' 
ADCP,ioos:station:wmo:42362:1,2009-05-02T08:15:00Z,27.7950,-90.6480,122.0,9.0,-9999.0,99.0,'11111222,99999999,11144222' 
ADCP,ioos:station:wmo:42362:1,2009-05-02T08:45:00Z,27.7950,-90.6480,122.0,8.0,-9999.0,99.0,'11111222,99999999,11144222' 
ADCP,ioos:station:wmo:42362:1,2009-05-02T09:15:00Z,27.7950,-90.6480,122.0,7.0,-9999.0,99.0,'11111222,99999999,11144222' 
ADCP,ioos:station:wmo:42362:1,2009-05-02T09:45:00Z,27.7950,-90.6480,122.0,7.0,-9999.0,99.0,'11111222,99999999,11144222' 
ADCP,ioos:station:wmo:42362:1,2009-05-02T10:15:00Z,27.7950,-90.6480,122.0,7.0,-9999.0,99.0,'11111222,99999999,11144222' 
ADCP,ioos:station:wmo:42362:1,2009-05-02T10:45:00Z,27.7950,-90.6480,122.0,9.0,-9999.0,99.0,'11111222,99999999,11144222' 
ADCP,ioos:station:wmo:42362:1,2009-05-02T11:15:00Z,27.7950,-90.6480,122.0,9.0,-9999.0,99.0,'11111222,99999999,11144222' 
ADCP,ioos:station:wmo:42362:1,2009-05-02T11:45:00Z,27.7950,-90.6480,122.0,9.0,-9999.0,99.0,'11111222,99999999,11144222' 
ADCP,ioos:station:wmo:42362:1,2009-05-02T12:15:00Z,27.7950,-90.6480,122.0,7.0,-9999.0,99.0,'11111222,99999999,11144222' 
ADCP,ioos:station:wmo:42362:1,2009-05-02T12:45:00Z,27.7950,-90.6480,122.0,8.0,-9999.0,99.0,'11111222,99999999,11144222' 
ADCP,ioos:station:wmo:42362:1,2009-05-02T13:15:00Z,27.7950,-90.6480,122.0,8.0,-9999.0,99.0,'11111222,99999999,11144222' 
ADCP,ioos:station:wmo:42362:1,2009-05-02T13:45:00Z,27.7950,-90.6480,122.0,8.0,-9999.0,99.0,'11111222,99999999,11144222' 
ADCP,ioos:station:wmo:42362:1,2009-05-02T14:15:00Z,27.7950,-90.6480,122.0,10.0,-9999.0,99.0,'11111222,99999999,11144222' 
ADCP,ioos:station:wmo:42362:1,2009-05-02T14:45:00Z,27.7950,-90.6480,122.0,9.0,-9999.0,99.0,'11111222,99999999,11144222' 
ADCP,ioos:station:wmo:42362:1,2009-05-02T15:15:00Z,27.7950,-90.6480,122.0,9.0,-9999.0,99.0,'11111222,99999999,11144222' 
ADCP,ioos:station:wmo:42362:1,2009-05-02T15:45:00Z,27.7950,-90.6480,122.0,10.0,-9999.0,99.0,'11111222,99999999,11144222' 
ADCP,ioos:station:wmo:42362:1,2009-05-02T16:15:00Z,27.7950,-90.6480,122.0,11.0,-9999.0,99.0,'11111222,99999999,11144222' 
ADCP,ioos:station:wmo:42362:1,2009-05-02T16:45:00Z,27.7950,-90.6480,122.0,12.0,-9999.0,99.0,'11111222,99999999,11144222' 
ADCP,ioos:station:wmo:42362:1,2009-05-02T17:15:00Z,27.7950,-90.6480,122.0,13.0,-9999.0,99.0,'11111222,99999999,11144222' 
ADCP,ioos:station:wmo:42362:1,2009-05-02T17:45:00Z,27.7950,-90.6480,122.0,12.0,-9999.0,99.0,'11111222,99999999,11144222' 
ADCP,ioos:station:wmo:42362:1,2009-05-02T18:15:00Z,27.7950,-90.6480,122.0,11.0,-9999.0,99.0,'11111222,99999999,11144222' 
ADCP,ioos:station:wmo:42362:1,2009-05-02T18:45:00Z,27.7950,-90.6480,122.0,10.0,-9999.0,99.0,'11111222,99999999,11144222' 
ADCP,ioos:station:wmo:42362:1,2009-05-02T19:15:00Z,27.7950,-90.6480,122.0,9.0,-9999.0,99.0,'11111222,99999999,11144222' 
ADCP,ioos:station:wmo:42362:1,2009-05-02T19:45:00Z,27.7950,-90.6480,122.0,9.0,-9999.0,99.0,'11111222,99999999,11144222' 
ADCP,ioos:station:wmo:42362:1,2009-05-02T20:15:00Z,27.7950,-90.6480,122.0,7.0,-9999.0,99.0,'11111222,99999999,11144222' 
ADCP,ioos:station:wmo:42362:1,2009-05-02T20:45:00Z,27.7950,-90.6480,122.0,7.0,-9999.0,99.0,'11111222,99999999,11144222' 
ADCP,ioos:station:wmo:42362:1,2009-05-02T21:15:00Z,27.7950,-90.6480,122.0,9.0,-9999.0,99.0,'11111222,99999999,11144222' 
ADCP,ioos:station:wmo:42362:1,2009-05-02T21:45:00Z,27.7950,-90.6480,122.0,9.0,-9999.0,99.0,'11111222,99999999,11144222' 
ADCP,ioos:station:wmo:42362:1,2009-05-02T22:15:00Z,27.7950,-90.6480,122.0,10.0,-9999.0,99.0,'11111222,99999999,11144222' 
ADCP,ioos:station:wmo:42362:1,2009-05-02T22:45:00Z,27.7950,-90.6480,122.0,11.0,-9999.0,99.0,'11111222,99999999,11144222' 
ADCP,ioos:station:wmo:42362:1,2009-05-02T23:15:00Z,27.7950,-90.6480,122.0,11.0,-9999.0,99.0,'11111222,99999999,11144222' 
ADCP,ioos:station:wmo:42362:1,2009-05-02T23:45:00Z,27.7950,-90.6480,122.0,11.0,-9999.0,99.0,'11111222,99999999,11144222' 
ADCP,ioos:station:wmo:42362:1,2009-05-03T00:15:00Z,27.7950,-90.6480,122.0,12.0,-9999.0,99.0,'11111222,99999999,11144222' 
ADCP,ioos:station:wmo:42362:1,2009-05-03T00:45:00Z,27.7950,-90.6480,122.0,11.0,-9999.0,99.0,'11111222,99999999,11144222' 
ADCP,ioos:station:wmo:42362:1,2009-05-03T01:15:00Z,27.7950,-90.6480,122.0,12.0,-9999.0,99.0,'11111222,99999999,11144222' 
ADCP,ioos:station:wmo:42362:1,2009-05-03T01:45:00Z,27.7950,-90.6480,122.0,10.0,-9999.0,99.0,'11111222,99999999,11144222' 
ADCP,ioos:station:wmo:42362:1,2009-05-03T02:15:00Z,27.7950,-90.6480,122.0,12.0,-9999.0,99.0,'11111222,99999999,11144222' 
ADCP,ioos:station:wmo:42362:1,2009-05-03T02:45:00Z,27.7950,-90.6480,122.0,12.0,-9999.0,99.0,'11111222,99999999,11144222' 
ADCP,ioos:station:wmo:42362:1,2009-05-03T03:15:00Z,27.7950,-90.6480,122.0,12.0,-9999.0,99.0,'11111222,99999999,11144222' 
ADCP,ioos:station:wmo:42362:1,2009-05-03T03:45:00Z,27.7950,-90.6480,122.0,14.0,-9999.0,99.0,'11111222,99999999,11144222' 
ADCP,ioos:station:wmo:42362:1,2009-05-03T04:15:00Z,27.7950,-90.6480,122.0,14.0,-9999.0,99.0,'11111222,99999999,11144222' 
ADCP,ioos:station:wmo:42362:1,2009-05-03T04:45:00Z,27.7950,-90.6480,122.0,15.0,-9999.0,99.0,'11111222,99999999,11144222' 
ADCP,ioos:station:wmo:42362:1,2009-05-03T05:15:00Z,27.7950,-90.6480,122.0,13.0,-9999.0,99.0,'11111222,99999999,11144222' 
ADCP,ioos:station:wmo:42362:1,2009-05-03T05:45:00Z,27.7950,-90.6480,122.0,15.0,-9999.0,99.0,'11111222,99999999,11144222' 
ADCP,ioos:station:wmo:42362:1,2009-05-03T06:15:00Z,27.7950,-90.6480,122.0,15.0,-9999.0,99.0,'11111222,99999999,11144222' 
ADCP,ioos:station:wmo:42362:1,2009-05-03T06:45:00Z,27.7950,-90.6480,122.0,13.0,-9999.0,99.0,'11111222,99999999,11144222' 
ADCP,ioos:station:wmo:42362:1,2009-05-03T07:15:00Z,27.7950,-90.6480,122.0,14.0,-9999.0,99.0,'11111222,99999999,11144222' 
ADCP,ioos:station:wmo:42362:1,2009-05-03T07:45:00Z,27.7950,-90.6480,122.0,15.0,-9999.0,99.0,'11111222,99999999,11144222' 
ADCP,ioos:station:wmo:42362:1,2009-05-03T08:15:00Z,27.7950,-90.6480,122.0,13.0,-9999.0,99.0,'11111222,99999999,11144222' 
ADCP,ioos:station:wmo:42362:1,2009-05-03T08:45:00Z,27.7950,-90.6480,122.0,12.0,-9999.0,99.0,'11111222,99999999,11144222' 
ADCP,ioos:station:wmo:42362:1,2009-05-03T09:15:00Z,27.7950,-90.6480,122.0,11.0,-9999.0,99.0,'11111222,99999999,11144222' 
ADCP,ioos:station:wmo:42362:1,2009-05-03T09:45:00Z,27.7950,-90.6480,122.0,13.0,-9999.0,99.0,'11111222,99999999,11144222' 
ADCP,ioos:station:wmo:42362:1,2009-05-03T10:15:00Z,27.7950,-90.6480,122.0,9.0,-9999.0,99.0,'11111222,99999999,11144222' 
ADCP,ioos:station:wmo:42362:1,2009-05-03T10:45:00Z,27.7950,-90.6480,122.0,10.0,-9999.0,99.0,'11111222,99999999,11144222' 
ADCP,ioos:station:wmo:42362:1,2009-05-03T11:15:00Z,27.7950,-90.6480,122.0,12.0,-9999.0,99.0,'11111222,99999999,11144222' 
ADCP,ioos:station:wmo:42362:1,2009-05-03T11:45:00Z,27.7950,-90.6480,122.0,13.0,-9999.0,99.0,'11111222,99999999,11144222' 
ADCP,ioos:station:wmo:42362:1,2009-05-03T12:15:00Z,27.7950,-90.6480,122.0,12.0,-9999.0,99.0,'11111222,99999999,11144222' 
ADCP,ioos:station:wmo:42362:1,2009-05-03T12:45:00Z,27.7950,-90.6480,122.0,15.0,-9999.0,99.0,'11111222,99999999,11144222' 
ADCP,ioos:station:wmo:42362:1,2009-05-03T13:15:00Z,27.7950,-90.6480,122.0,11.0,-9999.0,99.0,'11111222,99999999,11144222' 
ADCP,ioos:station:wmo:42362:1,2009-05-03T13:45:00Z,27.7950,-90.6480,122.0,11.0,-9999.0,99.0,'11111222,99999999,11144222' 
ADCP,ioos:station:wmo:42362:1,2009-05-03T14:15:00Z,27.7950,-90.6480,122.0,12.0,-9999.0,99.0,'11111222,99999999,11144222' 
ADCP,ioos:station:wmo:42362:1,2009-05-03T14:45:00Z,27.7950,-90.6480,122.0,13.0,-9999.0,99.0,'11111222,99999999,11144222' 
ADCP,ioos:station:wmo:42362:1,2009-05-03T15:15:00Z,27.7950,-90.6480,122.0,13.0,-9999.0,99.0,'11111222,99999999,11144222' 
ADCP,ioos:station:wmo:42362:1,2009-05-03T15:45:00Z,27.7950,-90.6480,122.0,13.0,-9999.0,99.0,'11111222,99999999,11144222' 
ADCP,ioos:station:wmo:42362:1,2009-05-03T16:15:00Z,27.7950,-90.6480,122.0,12.0,-9999.0,99.0,'11111222,99999999,11144222' 
ADCP,ioos:station:wmo:42362:1,2009-05-03T16:45:00Z,27.7950,-90.6480,122.0,10.0,-9999.0,99.0,'11111222,99999999,11144222' 
ADCP,ioos:station:wmo:42362:1,2009-05-03T17:15:00Z,27.7950,-90.6480,122.0,13.0,-9999.0,99.0,'11111222,99999999,11144222' 
ADCP,ioos:station:wmo:42362:1,2009-05-03T17:45:00Z,27.7950,-90.6480,122.0,10.0,-9999.0,99.0,'11111222,99999999,11144222' 
ADCP,ioos:station:wmo:42362:1,2009-05-03T18:15:00Z,27.7950,-90.6480,122.0,10.0,-9999.0,99.0,'11111222,99999999,11144222' 
ADCP,ioos:station:wmo:42362:1,2009-05-03T18:45:00Z,27.7950,-90.6480,122.0,10.0,-9999.0,99.0,'11111222,99999999,11144222' 
ADCP,ioos:station:wmo:42362:1,2009-05-03T19:15:00Z,27.7950,-90.6480,122.0,7.0,-9999.0,99.0,'11111222,99999999,11144222' 
ADCP,ioos:station:wmo:42362:1,2009-05-03T19:45:00Z,27.7950,-90.6480,122.0,12.0,-9999.0,99.0,'11111222,99999999,11144222' 
ADCP,ioos:station:wmo:42362:1,2009-05-03T20:15:00Z,27.7950,-90.6480,122.0,8.0,-9999.0,99.0,'11111222,99999999,11144222' 
ADCP,ioos:station:wmo:42362:1,2009-05-03T20:45:00Z,27.7950,-90.6480,122.0,8.0,-9999.0,99.0,'11111222,99999999,11144222' 
ADCP,ioos:station:wmo:42362:1,2009-05-03T21:15:00Z,27.7950,-90.6480,122.0,9.0,-9999.0,99.0,'11111222,99999999,11144222' 
ADCP,ioos:station:wmo:42362:1,2009-05-03T21:45:00Z,27.7950,-90.6480,122.0,10.0,-9999.0,99.0,'11111222,99999999,11144222' 
ADCP,ioos:station:wmo:42362:1,2009-05-03T22:15:00Z,27.7950,-90.6480,122.0,7.0,-9999.0,99.0,'11111222,99999999,11144222' 
ADCP,ioos:station:wmo:42362:1,2009-05-03T22:45:00Z,27.7950,-90.6480,122.0,7.0,-9999.0,99.0,'11111222,99999999,11144222' 
ADCP,ioos:station:wmo:42362:1,2009-05-03T23:15:00Z,27.7950,-90.6480,122.0,10.0,-9999.0,99.0,'11111222,99999999,11144222' 
ADCP,ioos:station:wmo:42362:1,2009-05-03T23:45:00Z,27.7950,-90.6480,122.0,10.0,-9999.0,99.0,'11111222,99999999,11144222' 
ADCP,ioos:station:wmo:42362:1,2009-05-04T00:15:00Z,27.7950,-90.6480,122.0,9.0,-9999.0,99.0,'11111222,99999999,11144222' 
ADCP,ioos:station:wmo:42362:1,2009-05-04T00:45:00Z,27.7950,-90.6480,122.0,9.0,-9999.0,99.0,'11111222,99999999,11144222' 
ADCP,ioos:station:wmo:42362:1,2009-05-04T01:15:00Z,27.7950,-90.6480,122.0,10.0,-9999.0,99.0,'11111222,99999999,11144222' 
ADCP,ioos:station:wmo:42362:1,2009-05-04T01:45:00Z,27.7950,-90.6480,122.0,11.0,-9999.0,99.0,'11111222,99999999,11144222' 
ADCP,ioos:station:wmo:42362:1,2009-05-04T02:15:00Z,27.7950,-90.6480,122.0,10.0,-9999.0,99.0,'11111222,99999999,11144222' 
ADCP,ioos:station:wmo:42362:1,2009-05-04T02:45:00Z,27.7950,-90.6480,122.0,11.0,-9999.0,99.0,'11111222,99999999,11144222' 
ADCP,ioos:station:wmo:42362:1,2009-05-04T03:15:00Z,27.7950,-90.6480,122.0,12.0,-9999.0,99.0,'11111222,99999999,11144222' 
ADCP,ioos:station:wmo:42362:1,2009-05-04T03:45:00Z,27.7950,-90.6480,122.0,13.0,-9999.0,99.0,'11111222,99999999,11144222' 
ADCP,ioos:station:wmo:42362:1,2009-05-04T04:15:00Z,27.7950,-90.6480,122.0,13.0,-9999.0,99.0,'11111222,99999999,11144222' 
ADCP,ioos:station:wmo:42362:1,2009-05-04T04:45:00Z,27.7950,-90.6480,122.0,13.0,-9999.0,99.0,'11111222,99999999,11144222' 
ADCP,ioos:station:wmo:42362:1,2009-05-04T05:15:00Z,27.7950,-90.6480,122.0,14.0,-9999.0,99.0,'11111222,99999999,11144222' 
ADCP,ioos:station:wmo:42362:1,2009-05-04T05:45:00Z,27.7950,-90.6480,122.0,13.0,-9999.0,99.0,'11111222,99999999,11144222' 
ADCP,ioos:station:wmo:42362:1,2009-05-04T06:15:00Z,27.7950,-90.6480,122.0,12.0,-9999.0,99.0,'11111222,99999999,11144222' 
ADCP,ioos:station:wmo:42362:1,2009-05-04T06:45:00Z,27.7950,-90.6480,122.0,13.0,-9999.0,99.0,'11111222,99999999,11144222' 
ADCP,ioos:station:wmo:42362:1,2009-05-04T07:15:00Z,27.7950,-90.6480,122.0,12.0,-9999.0,99.0,'11111222,99999999,11144222' 
ADCP,ioos:station:wmo:42362:1,2009-05-04T07:45:00Z,27.7950,-90.6480,122.0,12.0,-9999.0,99.0,'11111222,99999999,11144222' 
ADCP,ioos:station:wmo:42362:1,2009-05-04T08:15:00Z,27.7950,-90.6480,122.0,10.0,-9999.0,99.0,'11111222,99999999,11144222' 
ADCP,ioos:station:wmo:42362:1,2009-05-04T08:45:00Z,27.7950,-90.6480,122.0,12.0,-9999.0,99.0,'11111222,99999999,11144222' 
ADCP,ioos:station:wmo:42362:1,2009-05-04T09:15:00Z,27.7950,-90.6480,122.0,11.0,-9999.0,99.0,'11111222,99999999,11144222' 
ADCP,ioos:station:wmo:42362:1,2009-05-04T09:45:00Z,27.7950,-90.6480,122.0,12.0,-9999.0,99.0,'11111222,99999999,11144222' 
ADCP,ioos:station:wmo:42362:1,2009-05-04T10:15:00Z,27.7950,-90.6480,122.0,11.0,-9999.0,99.0,'11111222,99999999,11144222' 
ADCP,ioos:station:wmo:42362:1,2009-05-04T10:45:00Z,27.7950,-90.6480,122.0,9.0,-9999.0,99.0,'11111222,99999999,11144222' 
ADCP,ioos:station:wmo:42362:1,2009-05-04T11:15:00Z,27.7950,-90.6480,122.0,8.0,-9999.0,99.0,'11111222,99999999,11144222' 
ADCP,ioos:station:wmo:42362:1,2009-05-04T11:45:00Z,27.7950,-90.6480,122.0,11.0,-9999.0,99.0,'11111222,99999999,11144222' 
ADCP,ioos:station:wmo:42362:1,2009-05-04T12:15:00Z,27.7950,-90.6480,122.0,10.0,-9999.0,99.0,'11111222,99999999,11144222' 
ADCP,ioos:station:wmo:42362:1,2009-05-04T12:45:00Z,27.7950,-90.6480,122.0,9.0,-9999.0,99.0,'11111222,99999999,11144222' 
ADCP,ioos:station:wmo:42362:1,2009-05-04T13:15:00Z,27.7950,-90.6480,122.0,7.0,-9999.0,99.0,'11111222,99999999,11144222' 
ADCP,ioos:station:wmo:42362:1,2009-05-04T13:45:00Z,27.7950,-90.6480,122.0,6.0,-9999.0,99.0,'11111222,99999999,11144222' 
ADCP,ioos:station:wmo:42362:1,2009-05-04T14:15:00Z,27.7950,-90.6480,122.0,5.0,-9999.0,99.0,'11111222,99999999,11144222' 
ADCP,ioos:station:wmo:42362:1,2009-05-04T14:45:00Z,27.7950,-90.6480,122.0,5.0,-9999.0,99.0,'11111222,99999999,11144222' 
ADCP,ioos:station:wmo:42362:1,2009-05-04T15:15:00Z,27.7950,-90.6480,122.0,5.0,-9999.0,99.0,'11111222,99999999,11144222' 
ADCP,ioos:station:wmo:42362:1,2009-05-04T15:45:00Z,27.7950,-90.6480,122.0,6.0,-9999.0,99.0,'11111222,99999999,11144222' 
ADCP,ioos:station:wmo:42362:1,2009-05-04T16:15:00Z,27.7950,-90.6480,122.0,7.0,-9999.0,99.0,'11111222,99999999,11144222' 
ADCP,ioos:station:wmo:42362:1,2009-05-04T16:45:00Z,27.7950,-90.6480,122.0,8.0,-9999.0,99.0,'11111222,99999999,11144222' 
ADCP,ioos:station:wmo:42362:1,2009-05-04T17:15:00Z,27.7950,-90.6480,122.0,10.0,-9999.0,99.0,'11111222,99999999,11144222' 
ADCP,ioos:station:wmo:42362:1,2009-05-04T17:45:00Z,27.7950,-90.6480,122.0,8.0,-9999.0,99.0,'11111222,99999999,11144222' 
ADCP,ioos:station:wmo:42362:1,2009-05-04T18:15:00Z,27.7950,-90.6480,122.0,5.0,-9999.0,99.0,'11111222,99999999,11144222' 
ADCP,ioos:station:wmo:42362:1,2009-05-04T18:45:00Z,27.7950,-90.6480,122.0,4.0,-9999.0,99.0,'11111222,99999999,11144222' 
ADCP,ioos:station:wmo:42362:1,2009-05-04T19:15:00Z,27.7950,-90.6480,122.0,4.0,-9999.0,99.0,'11111222,99999999,11144222' 
ADCP,ioos:station:wmo:42362:1,2009-05-04T19:45:00Z,27.7950,-90.6480,122.0,5.0,-9999.0,99.0,'11111222,99999999,11144222' 
ADCP,ioos:station:wmo:42362:1,2009-05-04T20:00:00Z,27.7950,-90.6480,122.0,6.0,-9999.0,99.0,'11111222,99999999,11144222' 
ADCP,ioos:station:wmo:42362:1,2009-05-04T20:15:00Z,27.7950,-90.6480,122.0,5.0,-9999.0,99.0,'11111222,99999999,11144222' 
ADCP,ioos:station:wmo:42362:1,2009-05-04T20:30:00Z,27.7950,-90.6480,122.0,5.0,-9999.0,99.0,'11111222,99999999,11144222' 
ADCP,ioos:station:wmo:42362:1,2009-05-04T20:45:00Z,27.7950,-90.6480,122.0,4.0,-9999.0,99.0,'11111222,99999999,11144222' 
ADCP,ioos:station:wmo:42362:1,2009-05-04T21:00:00Z,27.7950,-90.6480,122.0,5.0,-9999.0,99.0,'11111222,99999999,11144222' 
ADCP,ioos:station:wmo:42362:1,2009-05-04T21:15:00Z,27.7950,-90.6480,122.0,5.0,-9999.0,99.0,'11111222,99999999,11144222' 
ADCP,ioos:station:wmo:42362:1,2009-05-04T21:30:00Z,27.7950,-90.6480,122.0,4.0,-9999.0,99.0,'11111222,99999999,11144222' 
ADCP,ioos:station:wmo:42362:1,2009-05-04T21:45:00Z,27.7950,-90.6480,122.0,7.0,-9999.0,99.0,'11111222,99999999,11144222' 
ADCP,ioos:station:wmo:42362:1,2009-05-04T22:00:00Z,27.7950,-90.6480,122.0,6.0,-9999.0,99.0,'11111222,99999999,11144222' 
ADCP,ioos:station:wmo:42362:1,2009-05-04T22:15:00Z,27.7950,-90.6480,122.0,6.0,-9999.0,99.0,'11111222,99999999,11144222' 
ADCP,ioos:station:wmo:42362:1,2009-05-04T22:30:00Z,27.7950,-90.6480,122.0,6.0,-9999.0,99.0,'11111222,99999999,11144222' 
ADCP,ioos:station:wmo:42362:1,2009-05-04T22:45:00Z,27.7950,-90.6480,122.0,8.0,-9999.0,99.0,'11111222,99999999,11144222' 